EN

Hourly Weather Barsuki

Today, 27 January, Wednesday

Time Temperature Precipitation Wind Pressure Humidity
00:00 -4°C° 0.1 mm 8 mps 739 mmHg 92%
01:00 -4°C° 0.3 mm 8 mps 738 mmHg 93%
02:00 -4°C° 0.3 mm 8 mps 738 mmHg 94%
03:00 -2°C° 0 mm 7 mps 738 mmHg 97%
04:00 -2°C° 0 mm 7 mps 737 mmHg 93%
05:00 -3°C° 0 mm 7 mps 737 mmHg 90%
06:00 -3°C° 0 mm 7 mps 737 mmHg 87%
07:00 -4°C° 0 mm 7 mps 738 mmHg 88%
08:00 -4°C° 0 mm 7 mps 738 mmHg 88%
09:00 -5°C° 0 mm 6 mps 738 mmHg 89%
10:00 -5°C° 0 mm 6 mps 739 mmHg 89%
11:00 -5°C° 0 mm 6 mps 739 mmHg 89%
12:00 -5°C° 0 mm 6 mps 739 mmHg 89%
13:00 -5°C° 0 mm 5 mps 739 mmHg 90%
14:00 -4°C° 0 mm 4 mps 739 mmHg 91%
15:00 -4°C° 0 mm 3 mps 739 mmHg 91%
16:00 -4°C° 0 mm 3 mps 739 mmHg 92%
17:00 -3°C° 0 mm 2 mps 739 mmHg 94%
18:00 -4°C° 0 mm 2 mps 739 mmHg 95%
19:00 -2°C° 0 mm 1 mps 739 mmHg 94%
20:00 -2°C° 0 mm 1 mps 739 mmHg 94%
21:00 -2°C° 0 mm 1 mps 739 mmHg 93%
22:00 -2°C° 0 mm 1 mps 739 mmHg 93%
23:00 -3°C° 0 mm 0 mps 739 mmHg 93%

Tomorrow, 28 January, Thursday

Time Temperature Precipitation Wind Pressure Humidity
00:00 -3°C° 0 mm 0 mps 739 mmHg 92%
01:00 -1°C° 0.1 mm 1 mps 739 mmHg 93%
02:00 -3°C° 0.1 mm 2 mps 739 mmHg 94%
03:00 -4°C° 0.1 mm 3 mps 738 mmHg 94%
04:00 -2°C° 0.2 mm 3 mps 738 mmHg 96%
05:00 -1°C° 0.2 mm 3 mps 738 mmHg 97%
06:00 -1°C° 0.2 mm 3 mps 738 mmHg 98%
07:00 -1°C° 0.5 mm 3 mps 737 mmHg 98%
08:00 -1°C° 0.5 mm 4 mps 737 mmHg 98%
09:00 -1°C° 0.5 mm 4 mps 737 mmHg 99%
10:00 -1°C° 0.2 mm 4 mps 737 mmHg 98%
11:00 -1°C° 0.2 mm 4 mps 737 mmHg 98%
12:00 -1°C° 0.2 mm 4 mps 737 mmHg 98%
13:00 -1°C° 0.4 mm 4 mps 737 mmHg 98%
14:00 -1°C° 0.4 mm 5 mps 736 mmHg 97%
15:00 -1°C° 0.4 mm 5 mps 736 mmHg 97%
16:00 -1°C° 0.1 mm 5 mps 736 mmHg 96%
17:00 -1°C° 0.1 mm 5 mps 736 mmHg 96%
18:00 -1°C° 0.1 mm 5 mps 736 mmHg 96%
19:00 -1°C° 0 mm 5 mps 736 mmHg 95%
20:00 -1°C° 0 mm 5 mps 736 mmHg 95%
21:00 -2°C° 0 mm 5 mps 736 mmHg 94%
22:00 -2°C° 0 mm 5 mps 736 mmHg 94%
23:00 -2°C° 0 mm 5 mps 736 mmHg 94%

Day after tomorrow, 29 January, Friday

Time Temperature Precipitation Wind Pressure Humidity
00:00 -1°C° 0 mm 5 mps 735 mmHg 95%
01:00 -1°C° 0.1 mm 5 mps 735 mmHg 95%
02:00 -1°C° 0.1 mm 5 mps 735 mmHg 96%
03:00 -1°C° 0.1 mm 5 mps 735 mmHg 97%
04:00 -1°C° 0.3 mm 4 mps 734 mmHg 98%
05:00 -1°C° 0.3 mm 4 mps 734 mmHg 98%
06:00 -1°C° 0.3 mm 4 mps 734 mmHg 99%
07:00 -1°C° 0.1 mm 4 mps 734 mmHg 97%
08:00 -2°C° 0.1 mm 4 mps 733 mmHg 96%
09:00 -2°C° 0.1 mm 4 mps 733 mmHg 94%
10:00 -2°C° 0 mm 4 mps 733 mmHg 93%
11:00 -2°C° 0 mm 5 mps 733 mmHg 91%
12:00 -2°C° 0 mm 5 mps 733 mmHg 90%
13:00 -3°C° 0 mm 6 mps 732 mmHg 88%
14:00 -3°C° 0 mm 6 mps 732 mmHg 87%
15:00 -4°C° 0 mm 6 mps 731 mmHg 86%
16:00 -4°C° 0 mm 6 mps 731 mmHg 88%
17:00 -4°C° 0 mm 6 mps 730 mmHg 90%
18:00 -4°C° 0 mm 6 mps 730 mmHg 92%
19:00 -5°C° 0.3 mm 6 mps 729 mmHg 93%
20:00 -5°C° 0.3 mm 5 mps 729 mmHg 93%
21:00 -5°C° 0.3 mm 5 mps 728 mmHg 94%
22:00 -5°C° 0.3 mm 5 mps 728 mmHg 93%
23:00 -6°C° 0.3 mm 5 mps 728 mmHg 93%

30 January, Saturday

Time Temperature Precipitation Wind Pressure Humidity
00:00 -6°C° 0.3 mm 5 mps 728 mmHg 93%
01:00 -7°C° 0.2 mm 5 mps 728 mmHg 93%
02:00 -7°C° 0.2 mm 4 mps 728 mmHg 94%
03:00 -8°C° 0.2 mm 4 mps 728 mmHg 94%
04:00 -9°C° 0.1 mm 4 mps 728 mmHg 94%
05:00 -10°C° 0.1 mm 4 mps 729 mmHg 94%
06:00 -11°C° 0.1 mm 4 mps 729 mmHg 93%
07:00 -11°C° 0 mm 4 mps 729 mmHg 94%
08:00 -11°C° 0 mm 4 mps 730 mmHg 94%
09:00 -11°C° 0 mm 4 mps 730 mmHg 95%
10:00 -10°C° 0 mm 4 mps 731 mmHg 93%
11:00 -9°C° 0 mm 4 mps 731 mmHg 92%
12:00 -8°C° 0 mm 5 mps 731 mmHg 91%
13:00 -8°C° 0 mm 5 mps 731 mmHg 91%
14:00 -8°C° 0 mm 5 mps 732 mmHg 91%
15:00 -8°C° 0 mm 5 mps 732 mmHg 91%
16:00 -8°C° 0 mm 4 mps 731 mmHg 91%
17:00 -8°C° 0 mm 4 mps 731 mmHg 92%
18:00 -8°C° 0 mm 4 mps 731 mmHg 92%
19:00 -7°C° 0.1 mm 4 mps 731 mmHg 94%
20:00 -7°C° 0.1 mm 4 mps 730 mmHg 95%
21:00 -7°C° 0.1 mm 4 mps 729 mmHg 96%
22:00 -6°C° 0.9 mm 5 mps 728 mmHg 96%
23:00 -6°C° 0.9 mm 5 mps 727 mmHg 96%

31 January, Sunday

Time Temperature Precipitation Wind Pressure Humidity
00:00 -5°C° 0.9 mm 6 mps 726 mmHg 96%
01:00 -4°C° 1.1 mm 6 mps 725 mmHg 97%
02:00 -3°C° 1.1 mm 6 mps 724 mmHg 97%
03:00 -2°C° 1.1 mm 6 mps 723 mmHg 98%
04:00 -2°C° 0.3 mm 6 mps 723 mmHg 98%
05:00 -2°C° 0.3 mm 7 mps 722 mmHg 98%
06:00 -2°C° 0.3 mm 7 mps 722 mmHg 97%
07:00 -4°C° 0.2 mm 7 mps 723 mmHg 96%
08:00 -7°C° 0.2 mm 7 mps 724 mmHg 94%
09:00 -8°C° 0.2 mm 7 mps 724 mmHg 92%
10:00 -8°C° 0.1 mm 8 mps 725 mmHg 91%
11:00 -8°C° 0.1 mm 8 mps 727 mmHg 91%
12:00 -8°C° 0.1 mm 8 mps 728 mmHg 90%
13:00 -8°C° 0 mm 8 mps 728 mmHg 89%
14:00 -8°C° 0 mm 8 mps 729 mmHg 88%
15:00 -8°C° 0 mm 8 mps 730 mmHg 87%
16:00 -8°C° 0 mm 8 mps 730 mmHg 87%
17:00 -8°C° 0 mm 8 mps 731 mmHg 88%
18:00 -10°C° 0 mm 8 mps 731 mmHg 89%
19:00 -10°C° 0 mm 8 mps 732 mmHg 89%
20:00 -10°C° 0 mm 8 mps 733 mmHg 89%
21:00 -10°C° 0 mm 8 mps 733 mmHg 89%
22:00 -10°C° 0 mm 8 mps 734 mmHg 89%
23:00 -9°C° 0 mm 7 mps 735 mmHg 89%

1 February, Monday

Time Temperature Precipitation Wind Pressure Humidity
00:00 -9°C° 0 mm 7 mps 735 mmHg 90%
01:00 -11°C° 0 mm 7 mps 736 mmHg 90%
02:00 -10°C° 0 mm 6 mps 737 mmHg 91%
03:00 -10°C° 0 mm 6 mps 737 mmHg 91%
04:00 -10°C° 0 mm 6 mps 738 mmHg 92%
05:00 -10°C° 0 mm 6 mps 738 mmHg 92%
06:00 -10°C° 0 mm 5 mps 738 mmHg 92%
07:00 -10°C° 0 mm 5 mps 739 mmHg 92%
08:00 -10°C° 0 mm 5 mps 740 mmHg 92%
09:00 -11°C° 0 mm 5 mps 740 mmHg 91%
10:00 -10°C° 0 mm 5 mps 740 mmHg 92%
11:00 -9°C° 0 mm 4 mps 741 mmHg 92%
12:00 -9°C° 0 mm 4 mps 741 mmHg 92%
13:00 -9°C° 0 mm 4 mps 741 mmHg 93%
14:00 -8°C° 0 mm 3 mps 741 mmHg 93%
15:00 -8°C° 0 mm 3 mps 741 mmHg 94%
16:00 -8°C° 0 mm 2 mps 741 mmHg 94%
17:00 -9°C° 0 mm 2 mps 741 mmHg 95%
18:00 -10°C° 0 mm 2 mps 741 mmHg 95%
19:00 -12°C° 0 mm 2 mps 741 mmHg 95%
20:00 -12°C° 0 mm 2 mps 741 mmHg 95%
21:00 -13°C° 0 mm 2 mps 740 mmHg 95%
22:00 -13°C° 0 mm 2 mps 741 mmHg 96%
23:00 -13°C° 0 mm 2 mps 741 mmHg 96%
Show more

We Need Your Consent

Meteoprog and our Service Providers may store and access personal data such as cookies, device identifiers or other similar technologies on your device and process such data to personalise content and ads, as well as provide social media features and to analyse the traffic.

  • Store and/or access information on your device

    Cookies, device identifiers or other information can be stored or accessed on your device for the purposes indicated above.

  • Personalised ads and content, ad and content measurement, audience insights, and products development

    Ads and content can be personalised based on a profile. More data can be added to better personalise ads and content. Ad and content performance can be measured. Insights about the audience who saw the ads and content can be derived. Such data can be used to develop or improve user’s experience, systems and software.

By clicking ‘I Agree’ you will allow the use of indicated cookies, device identifiers, web beacons or other similar technologies. Your settings can be changed in the browser on your device.

For certain purposes, legitimate interests may be relied on, rather than consent. You can read more about this in our Privacy and Cookie Policy.